FW5198 Weather Reports


Display with metric or nautical units.
time (UTC)temp
F
wind
direction
speed
MPH
gust
MPH
rain 1hr
in
rain 24hr
in
rain mn
in
humidity
%
barometer
mb
20260509234542 77 0 0.0 2.0 0.00 0.00 0.00 48 1011.4
20260509233044 78 41 2.0 5.0 0.00 0.00 0.00 44 1011.3
20260509231543 79 49 1.0 4.0 0.00 0.00 0.00 42 1011.2
20260509230050 79 40 0.0 3.0 0.00 0.00 0.00 43 1011.1
20260509224545 79 73 1.0 4.0 0.00 0.00 0.00 44 1011.0
20260509223039 79 0 1.0 5.0 0.00 0.00 0.00 43 1011.0
20260509221543 79 0 1.0 4.0 0.00 0.00 0.00 43 1010.8
20260509220046 79 20 2.0 4.0 0.00 0.00 0.00 44 1011.1
20260509214536 78 0 1.0 5.0 0.00 0.00 0.00 44 1010.8
20260509213043 80 103 2.0 7.0 0.00 0.00 0.00 43 1010.7
20260509211540 80 67 2.0 6.0 0.00 0.00 0.00 43 1010.6
20260509210044 79 107 2.0 6.0 0.00 0.00 0.00 43 1010.5
20260509204545 80 86 0.0 4.0 0.00 0.00 0.00 44 1010.6
20260509203043 80 65 1.0 2.0 0.00 0.00 0.00 44 1010.6
20260509201543 78 23 3.0 8.0 0.00 0.00 0.00 45 1010.8
20260509200037 79 0 2.0 5.0 0.00 0.00 0.00 47 1010.8
20260509194538 79 103 2.0 5.0 0.00 0.00 0.00 48 1011.1
20260509193042 78 34 2.0 6.0 0.00 0.00 0.00 50 1011.2
20260509191540 78 61 5.0 9.0 0.00 0.00 0.00 50 1011.2
20260509190045 77 140 2.0 9.0 0.00 0.00 0.00 52 1011.3
20260509184551 77 11 3.0 7.0 0.00 0.00 0.00 51 1011.5
20260509183037 77 44 3.0 8.0 0.00 0.00 0.00 53 1011.4
20260509181551 77 37 3.0 6.0 0.00 0.00 0.00 52 1011.3
20260509180043 76 34 2.0 9.0 0.00 0.00 0.00 52 1011.4
20260509174545 76 45 0.0 5.0 0.00 0.00 0.00 57 1011.2
20260509173042 75 111 3.0 5.0 0.00 0.00 0.00 56 1011.4
20260509171538 76 41 1.0 4.0 0.00 0.00 0.00 58 1011.3
20260509170048 75 113 2.0 5.0 0.00 0.00 0.00 59 1011.4
20260509164542 75 53 0.0 3.0 0.00 0.00 0.00 60 1011.4
20260509163043 72 30 1.0 9.0 0.00 0.00 0.00 62 1011.5
20260509161540 72 115 1.0 3.0 0.00 0.00 0.00 63 1011.3
20260509160039 73 117 2.0 6.0 0.00 0.00 0.00 65 1011.4
20260509154543 71 32 3.0 8.0 0.00 0.00 0.00 67 1011.6
20260509153058 69 51 1.0 6.0 0.00 0.00 0.00 71 1011.3
20260509151547 69 80 2.0 5.0 0.00 0.00 0.00 73 1011.3
20260509150046 67 68 2.0 6.0 0.00 0.00 0.00 75 1011.2
20260509144538 66 23 3.0 7.0 0.00 0.00 0.00 79 1011.3
20260509143039 65 49 3.0 7.0 0.00 0.00 0.00 82 1011.1
20260509141539 63 46 5.0 11.0 0.00 0.00 0.00 83 1011.1
20260509140048 63 20 6.0 12.0 0.00 0.00 0.00 84 1010.9
20260509134541 62 94 3.0 7.0 0.00 0.00 0.00 87 1010.8
20260509133040 60 98 3.0 9.0 0.00 0.00 0.00 89 1011.1
20260509131540 58 26 2.0 8.0 0.00 0.00 0.00 92 1011.0
20260509130042 57 31 2.0 9.0 0.00 0.00 0.00 94 1011.0
20260509124538 56 87 4.0 11.0 0.00 0.00 0.00 95 1011.0
20260509123040 55 36 4.0 9.0 0.00 0.00 0.00 95 1011.1
20260509121541 54 56 3.0 8.0 0.00 0.00 0.00 95 1011.2
20260509120043 54 27 3.0 8.0 0.00 0.00 0.00 96 1010.8
20260509114538 53 56 1.0 4.0 0.00 0.00 0.00 96 1010.4
20260509113042 53 20 1.0 5.0 0.00 0.00 0.00 96 1010.2
20260509111542 53 49 1.0 5.0 0.00 0.00 0.00 95 1009.9
20260509110044 52 27 2.0 5.0 0.00 0.00 0.00 95 1009.8
20260509104540 52 0 0.0 2.0 0.00 0.00 0.00 95 1009.8
20260509103040 52 37 0.0 1.0 0.00 0.00 0.00 94 1009.9
20260509101545 52 37 0.0 1.0 0.00 0.00 0.00 94 1009.9
20260509100045 52 0 0.0 1.0 0.00 0.00 0.00 93 1009.9
20260509094541 53 0 0.0 1.0 0.00 0.00 0.00 93 1010.1
20260509093042 53 37 0.0 2.0 0.00 0.00 0.00 92 1010.1
20260509091540 54 0 0.0 1.0 0.00 0.00 0.00 91 1010.3
20260509090041 54 42 0.0 2.0 0.00 0.00 0.00 90 1010.4
20260509084547 54 0 0.0 2.0 0.00 0.00 0.00 90 1010.4
20260509083039 54 0 0.0 4.0 0.00 0.00 0.00 90 1010.2
20260509081537 54 44 0.0 3.0 0.00 0.00 0.00 90 1010.1
20260509080043 54 0 1.0 3.0 0.00 0.00 0.00 89 1010.4
20260509074543 54 41 0.0 1.0 0.00 0.00 0.00 89 1010.1
20260509073112 54 0 0.0 1.0 0.00 0.00 0.00 89 1010.1
20260509071543 54 0 0.0 3.0 0.00 0.00 0.00 89 1009.8
20260509070041 53 0 0.0 1.0 0.00 0.00 0.00 90 1010.5
20260509064539 53 46 0.0 1.0 0.00 0.00 0.00 89 1010.7
20260509063042 54 0 0.0 1.0 0.00 0.00 0.00 88 1011.0
20260509061543 54 0 0.0 1.0 0.00 0.00 0.00 86 1011.1
20260509060052 55 0 0.0 1.0 0.00 0.00 0.00 85 1011.4
20260509054547 56 0 0.0 2.0 0.00 0.00 0.00 82 1011.3
20260509053042 57 46 0.0 2.0 0.00 0.00 0.00 81 1011.3
20260509051543 57 53 1.0 6.0 0.00 0.00 0.00 80 1011.4
20260509050050 58 43 1.0 4.0 0.00 0.00 0.00 78 1011.5
20260509044542 58 41 1.0 3.0 0.00 0.00 0.00 77 1011.1
20260509043038 59 15 1.0 6.0 0.00 0.00 0.00 76 1011.0
20260509041538 59 45 2.0 5.0 0.00 0.00 0.00 74 1011.2
20260509040050 60 39 1.0 3.0 0.00 0.00 0.00 73 1011.3
20260509034549 60 43 1.0 8.0 0.00 0.00 0.00 72 1011.2
20260509033041 60 38 1.0 4.0 0.00 0.00 0.00 71 1011.3
20260509031541 60 39 2.0 7.0 0.00 0.00 0.00 70 1011.4
20260509030037 60 0 1.0 3.0 0.00 0.00 0.00 69 1011.5
20260509024548 60 44 0.0 2.0 0.00 0.00 0.00 68 1011.4
20260509023045 61 0 0.0 2.0 0.00 0.00 0.00 67 1011.3
20260509021545 61 44 0.0 1.0 0.00 0.00 0.00 67 1011.3
20260509020041 62 0 0.0 2.0 0.00 0.00 0.00 64 1011.3
20260509014536 62 0 0.0 2.0 0.00 0.00 0.00 64 1011.4
20260509013038 63 0 0.0 3.0 0.00 0.00 0.00 64 1011.4
20260509011555 63 43 0.0 1.0 0.00 0.00 0.00 64 1011.1
20260509010045 65 43 0.0 2.0 0.00 0.00 0.00 61 1011.1
20260509004546 66 44 1.0 2.0 0.00 0.00 0.00 60 1011.1
20260509003039 69 44 0.0 3.0 0.00 0.00 0.00 55 1011.0
20260509001545 70 42 1.0 3.0 0.00 0.00 0.00 48 1011.0
20260509000046 71 21 1.0 5.0 0.00 0.00 0.00 45 1011.2